Location: Brabourne
(51.1333°N, 1.0000°E)
Time: 05:38:24
(UTC+00:00)

NOSS 3-1 (A) - Pass Details

Date: 25 October 2021
Orbit: 721 x 1491 km, 63.4° (Epoch: 22 November)

Event Time Altitude Azimuth Distance (km) Brightness Sun altitude
Exits shadow 05:06:50 10° 236° (SW) 3,437 5.9 -14.7°
Drops below altitude 10° 05:07:06 10° 234° (SW) 3,475 5.9 -14.6°
Sets 05:12:24 0° 209° (SSW) 4,550 6.7 -13.8°
